Year,Month,Day,Hour,Minute,Value (Times are PST for temperature in C)
2020,12,04,00,00,4.70
2020,12,04,00,01,4.70
2020,12,04,00,02,4.70
2020,12,04,00,03,4.70
2020,12,04,00,04,4.70
2020,12,04,00,05,4.70
2020,12,04,00,06,4.70
2020,12,04,00,07,4.70
2020,12,04,00,08,4.70
2020,12,04,00,09,4.70
2020,12,04,00,10,4.70
2020,12,04,00,11,4.70
2020,12,04,00,12,4.70
2020,12,04,00,13,4.70
2020,12,04,00,14,4.70
2020,12,04,00,15,4.70
2020,12,04,00,16,4.70
2020,12,04,00,17,4.70
2020,12,04,00,18,4.70
2020,12,04,00,19,4.70
2020,12,04,00,20,4.70
2020,12,04,00,21,4.70
2020,12,04,00,22,4.70
2020,12,04,00,23,4.70
2020,12,04,00,24,4.70
2020,12,04,00,25,4.70
2020,12,04,00,26,4.70
2020,12,04,00,27,4.70
2020,12,04,00,28,4.70
2020,12,04,00,29,4.70
2020,12,04,00,30,4.70
2020,12,04,00,31,4.70
2020,12,04,00,32,4.70
2020,12,04,00,33,4.70
2020,12,04,00,34,4.70
2020,12,04,00,35,4.70
2020,12,04,00,36,4.70
2020,12,04,00,37,4.70
2020,12,04,00,38,4.70
2020,12,04,00,39,4.70
2020,12,04,00,40,4.70
2020,12,04,00,41,4.70
2020,12,04,00,42,4.70
2020,12,04,00,43,4.70
2020,12,04,00,44,4.70
2020,12,04,00,45,4.70
2020,12,04,00,46,4.70
2020,12,04,00,47,4.70
2020,12,04,00,48,4.70
2020,12,04,00,49,4.70
2020,12,04,00,50,4.70
2020,12,04,00,51,4.70
2020,12,04,00,52,4.70
2020,12,04,00,53,4.70
2020,12,04,00,54,4.70
2020,12,04,00,55,4.70
2020,12,04,00,56,4.70
2020,12,04,00,57,4.70
2020,12,04,00,58,4.70
2020,12,04,00,59,4.70
2020,12,04,01,00,4.70
2020,12,04,01,01,4.70
2020,12,04,01,02,4.70
2020,12,04,01,03,4.70
2020,12,04,01,04,4.80
2020,12,04,01,05,4.80
2020,12,04,01,06,4.80
2020,12,04,01,07,4.80
2020,12,04,01,08,4.80
2020,12,04,01,09,4.80
2020,12,04,01,10,4.80
2020,12,04,01,11,4.80
2020,12,04,01,12,4.80
2020,12,04,01,13,4.80
2020,12,04,01,14,4.80
2020,12,04,01,15,4.80
2020,12,04,01,16,4.80
2020,12,04,01,17,4.80
2020,12,04,01,18,4.80
2020,12,04,01,19,4.80
2020,12,04,01,20,4.80
2020,12,04,01,21,4.80
2020,12,04,01,22,4.80
2020,12,04,01,23,4.80
2020,12,04,01,24,4.80
2020,12,04,01,25,4.80
2020,12,04,01,26,4.80
2020,12,04,01,27,4.80
2020,12,04,01,28,4.80
2020,12,04,01,29,4.80
2020,12,04,01,30,4.80
2020,12,04,01,31,4.90
2020,12,04,01,32,4.90
2020,12,04,01,33,4.90
2020,12,04,01,34,4.90
2020,12,04,01,35,4.90
2020,12,04,01,36,4.90
2020,12,04,01,37,4.90
2020,12,04,01,38,4.90
2020,12,04,01,39,4.90
2020,12,04,01,40,4.90
2020,12,04,01,41,4.90
2020,12,04,01,42,4.90
2020,12,04,01,43,4.90
2020,12,04,01,44,4.90
2020,12,04,01,45,4.90
2020,12,04,01,46,4.90
2020,12,04,01,47,4.90
2020,12,04,01,48,4.90
2020,12,04,01,49,4.90
2020,12,04,01,50,4.90
2020,12,04,01,51,4.90
2020,12,04,01,52,4.90
2020,12,04,01,53,4.90
2020,12,04,01,54,4.90
2020,12,04,01,55,4.90
2020,12,04,01,56,4.90
2020,12,04,01,57,4.90
2020,12,04,01,58,4.90
2020,12,04,01,59,4.90
2020,12,04,02,00,4.90
2020,12,04,02,01,5.00
2020,12,04,02,02,5.00
2020,12,04,02,03,5.00
2020,12,04,02,04,5.00
2020,12,04,02,05,5.00
2020,12,04,02,06,5.00
2020,12,04,02,07,5.00
2020,12,04,02,08,5.00
2020,12,04,02,09,5.00
2020,12,04,02,10,5.00
2020,12,04,02,11,5.00
2020,12,04,02,12,5.00
2020,12,04,02,13,5.00
2020,12,04,02,14,5.00
2020,12,04,02,15,5.00
2020,12,04,02,16,5.00
2020,12,04,02,17,5.00
2020,12,04,02,18,5.00
2020,12,04,02,19,5.00
2020,12,04,02,20,5.00
2020,12,04,02,21,5.00
2020,12,04,02,22,5.00
2020,12,04,02,23,5.00
2020,12,04,02,24,5.00
2020,12,04,02,25,5.00
2020,12,04,02,26,5.00
2020,12,04,02,27,5.10
2020,12,04,02,28,5.10
2020,12,04,02,29,5.10
2020,12,04,02,30,5.10
2020,12,04,02,31,5.10
2020,12,04,02,32,5.10
2020,12,04,02,33,5.10
2020,12,04,02,34,5.10
2020,12,04,02,35,5.10
2020,12,04,02,36,5.10
2020,12,04,02,37,5.10
2020,12,04,02,38,5.10
2020,12,04,02,39,5.10
2020,12,04,02,40,5.10
2020,12,04,02,41,5.10
2020,12,04,02,42,5.10
2020,12,04,02,43,5.10
2020,12,04,02,44,5.10
2020,12,04,02,45,5.10
2020,12,04,02,46,5.10
2020,12,04,02,47,5.10
2020,12,04,02,48,5.10
2020,12,04,02,49,5.10
2020,12,04,02,50,5.10
2020,12,04,02,51,5.10
2020,12,04,02,52,5.10
2020,12,04,02,53,5.10
2020,12,04,02,54,5.10
2020,12,04,02,55,5.10
2020,12,04,02,56,5.10
2020,12,04,02,57,5.10
2020,12,04,02,58,5.10
2020,12,04,02,59,5.10
2020,12,04,03,00,5.10
2020,12,04,03,01,5.10
2020,12,04,03,02,5.10
2020,12,04,03,03,5.10
2020,12,04,03,04,5.10
2020,12,04,03,05,5.10
2020,12,04,03,06,5.10
2020,12,04,03,07,5.10
2020,12,04,03,08,5.10
2020,12,04,03,09,5.10
2020,12,04,03,10,5.10
2020,12,04,03,11,5.10
2020,12,04,03,12,5.10
2020,12,04,03,13,5.10
2020,12,04,03,14,5.10
2020,12,04,03,15,5.10
2020,12,04,03,16,5.10
2020,12,04,03,17,5.10
2020,12,04,03,18,5.10
2020,12,04,03,19,5.10
2020,12,04,03,20,5.10
2020,12,04,03,21,5.10
2020,12,04,03,22,5.10
2020,12,04,03,23,5.10
2020,12,04,03,24,5.10
2020,12,04,03,25,5.10
2020,12,04,03,26,5.10
2020,12,04,03,27,5.10
2020,12,04,03,28,5.10
2020,12,04,03,29,5.10
2020,12,04,03,30,5.10
2020,12,04,03,31,5.10
2020,12,04,03,32,5.10
2020,12,04,03,33,5.10
2020,12,04,03,34,5.10
2020,12,04,03,35,5.10
2020,12,04,03,36,5.10
2020,12,04,03,37,5.10
2020,12,04,03,38,5.10
2020,12,04,03,39,5.10
2020,12,04,03,40,5.10
2020,12,04,03,41,5.10
2020,12,04,03,42,5.10
2020,12,04,03,43,5.10
2020,12,04,03,44,5.10
2020,12,04,03,45,5.10
2020,12,04,03,46,5.10
2020,12,04,03,47,5.10
2020,12,04,03,48,5.10
2020,12,04,03,49,5.10
2020,12,04,03,50,5.10
2020,12,04,03,51,5.10
2020,12,04,03,52,5.10
2020,12,04,03,53,5.10
2020,12,04,03,54,5.10
2020,12,04,03,55,5.10
2020,12,04,03,56,5.10
2020,12,04,03,57,5.10
2020,12,04,03,58,5.10
2020,12,04,03,59,5.10
2020,12,04,04,00,5.10
2020,12,04,04,01,5.10
2020,12,04,04,02,5.10
2020,12,04,04,03,5.10
2020,12,04,04,04,5.10
2020,12,04,04,05,5.10
2020,12,04,04,06,5.10
2020,12,04,04,07,5.10
2020,12,04,04,08,5.10
2020,12,04,04,09,5.10
2020,12,04,04,10,5.10
2020,12,04,04,11,5.10
2020,12,04,04,12,5.10
2020,12,04,04,13,5.10
2020,12,04,04,14,5.10
2020,12,04,04,15,5.10
2020,12,04,04,16,5.10
2020,12,04,04,17,5.10
2020,12,04,04,18,5.10
2020,12,04,04,19,5.10
2020,12,04,04,20,5.10
2020,12,04,04,21,5.10
2020,12,04,04,22,5.10
2020,12,04,04,23,5.10
2020,12,04,04,24,5.10
2020,12,04,04,25,5.10
2020,12,04,04,26,5.10
2020,12,04,04,27,5.10
2020,12,04,08,41,4.10
2020,12,04,08,42,4.10
2020,12,04,08,43,4.10
2020,12,04,08,44,4.10
2020,12,04,08,45,4.10
2020,12,04,08,46,4.10
2020,12,04,08,47,4.10
2020,12,04,08,48,4.10
2020,12,04,08,49,4.10
2020,12,04,08,50,4.20
2020,12,04,08,51,4.20
2020,12,04,08,52,4.20
2020,12,04,08,53,4.30
2020,12,04,08,54,4.30
2020,12,04,08,55,4.40
2020,12,04,08,56,4.50
2020,12,04,08,57,4.50
2020,12,04,08,58,4.60
2020,12,04,08,59,4.60
2020,12,04,09,00,4.70
2020,12,04,09,01,4.70
2020,12,04,09,02,4.70
2020,12,04,09,03,4.80
2020,12,04,09,04,4.90
2020,12,04,09,05,4.90
2020,12,04,09,06,5.00
2020,12,04,09,07,5.10
2020,12,04,09,08,5.10
2020,12,04,09,09,5.10
2020,12,04,09,10,5.20
2020,12,04,09,11,5.20
2020,12,04,09,12,5.30
2020,12,04,09,13,5.40
2020,12,04,09,14,5.40
2020,12,04,09,15,5.50
2020,12,04,09,16,5.50
2020,12,04,09,17,5.60
2020,12,04,09,18,5.70
2020,12,04,09,19,5.70
2020,12,04,09,20,5.70
2020,12,04,09,21,5.70
2020,12,04,09,22,5.80
2020,12,04,09,23,5.90
2020,12,04,09,24,5.90
2020,12,04,09,25,6.00
2020,12,04,09,26,6.10
2020,12,04,09,27,6.10
2020,12,04,09,28,6.20
2020,12,04,09,29,6.20
2020,12,04,09,30,6.20
2020,12,04,09,31,6.20
2020,12,04,09,32,6.30
2020,12,04,09,33,6.30
2020,12,04,09,34,6.40
2020,12,04,09,35,6.50
2020,12,04,09,36,6.60
2020,12,04,09,37,6.70
2020,12,04,09,38,6.80
2020,12,04,09,39,6.90
2020,12,04,09,40,7.00
2020,12,04,09,41,7.00
2020,12,04,09,42,7.10
2020,12,04,09,43,7.10
2020,12,04,09,44,7.10
2020,12,04,09,45,7.20
2020,12,04,09,46,7.20
2020,12,04,09,47,7.20
2020,12,04,09,48,7.30
2020,12,04,09,49,7.40
2020,12,04,09,50,7.50
2020,12,04,09,51,7.70
2020,12,04,09,52,7.80
2020,12,04,09,53,7.90
2020,12,04,09,54,7.90
2020,12,04,09,55,8.00
2020,12,04,09,56,8.10
2020,12,04,09,57,8.20
2020,12,04,09,58,8.20
2020,12,04,09,59,8.30
2020,12,04,10,00,8.40
2020,12,04,10,01,8.40
2020,12,04,10,02,8.40
2020,12,04,10,03,8.50
2020,12,04,10,04,8.40
2020,12,04,10,05,8.40
2020,12,04,10,06,8.40
2020,12,04,10,07,8.30
2020,12,04,10,08,8.20
2020,12,04,10,09,8.20
2020,12,04,10,10,8.10
2020,12,04,10,11,8.00
2020,12,04,10,12,8.00
2020,12,04,10,13,8.00
2020,12,04,10,14,7.90
2020,12,04,10,15,8.00
2020,12,04,10,16,8.00
2020,12,04,10,17,8.10
2020,12,04,10,18,8.10
2020,12,04,10,19,8.10
2020,12,04,10,20,8.20
2020,12,04,10,21,8.20
2020,12,04,10,22,8.20
2020,12,04,10,23,8.10
2020,12,04,10,24,8.00
2020,12,04,10,25,7.90
2020,12,04,10,26,7.80
2020,12,04,10,27,7.70
2020,12,04,10,28,7.60
2020,12,04,10,29,7.60
2020,12,04,10,30,7.50
2020,12,04,10,31,7.40
2020,12,04,10,32,7.40
2020,12,04,10,33,7.30
2020,12,04,10,34,7.20
2020,12,04,10,35,7.20
2020,12,04,10,36,7.20
2020,12,04,10,37,7.20
2020,12,04,10,38,7.20
2020,12,04,10,39,7.30
2020,12,04,10,40,7.40
2020,12,04,10,41,7.60
2020,12,04,10,42,7.70
2020,12,04,10,43,7.80
2020,12,04,10,44,8.00
2020,12,04,10,45,8.10
2020,12,04,10,46,8.20
2020,12,04,10,47,8.20
2020,12,04,10,48,8.30
2020,12,04,10,49,8.30
2020,12,04,10,50,8.30
2020,12,04,10,51,8.40
2020,12,04,10,52,8.40
2020,12,04,10,53,8.50
2020,12,04,10,54,8.60
2020,12,04,10,55,8.70
2020,12,04,10,56,8.70
2020,12,04,10,57,8.70
2020,12,04,10,58,8.90
2020,12,04,10,59,9.00
2020,12,04,11,00,9.10
2020,12,04,11,01,9.10
2020,12,04,11,02,9.20
2020,12,04,11,03,9.20
2020,12,04,11,04,9.20
2020,12,04,11,05,9.20
2020,12,04,11,06,9.20
2020,12,04,11,07,9.20
2020,12,04,11,08,9.30
2020,12,04,11,09,9.40
2020,12,04,11,10,9.40
2020,12,04,11,11,9.50
2020,12,04,11,12,9.60
2020,12,04,11,13,9.60
2020,12,04,11,14,9.70
2020,12,04,11,15,9.70
2020,12,04,11,16,9.70
2020,12,04,11,17,9.60
2020,12,04,11,18,9.60
2020,12,04,11,19,9.60
2020,12,04,11,20,9.60
2020,12,04,11,21,9.70
2020,12,04,11,22,9.80
2020,12,04,11,23,9.90
2020,12,04,11,24,10.00
2020,12,04,11,25,10.10
2020,12,04,11,26,10.20
2020,12,04,11,27,10.20
2020,12,04,11,28,10.20
2020,12,04,11,29,10.20
2020,12,04,11,30,10.10
2020,12,04,11,31,10.00
2020,12,04,11,32,9.90
2020,12,04,11,33,9.90
2020,12,04,11,34,9.90
2020,12,04,11,35,9.90
2020,12,04,11,36,9.90
2020,12,04,11,37,9.90
2020,12,04,11,38,9.90
2020,12,04,11,39,9.80
2020,12,04,11,40,9.80
2020,12,04,11,41,9.80
2020,12,04,11,42,9.80
2020,12,04,11,43,9.80
2020,12,04,11,44,9.80
2020,12,04,11,45,9.80
2020,12,04,11,46,9.90
2020,12,04,11,47,10.00
2020,12,04,11,48,10.10
2020,12,04,11,49,10.20
2020,12,04,11,50,10.30
2020,12,04,11,51,10.30
2020,12,04,11,52,10.30
2020,12,04,11,53,10.30
2020,12,04,11,54,10.30
2020,12,04,11,55,10.30
2020,12,04,11,56,10.20
2020,12,04,11,57,10.20
2020,12,04,11,58,10.20
2020,12,04,11,59,10.30
2020,12,04,12,00,10.30
2020,12,04,12,01,10.30
2020,12,04,12,02,10.30
2020,12,04,12,03,10.30
2020,12,04,12,04,10.30
2020,12,04,12,05,10.30
2020,12,04,12,06,10.30
2020,12,04,12,07,10.30
2020,12,04,12,08,10.30
2020,12,04,12,09,10.40
2020,12,04,12,10,10.50
2020,12,04,12,11,10.60
2020,12,04,12,12,10.80
2020,12,04,12,13,10.90
2020,12,04,12,14,11.10
2020,12,04,12,15,11.20
2020,12,04,12,16,11.40
2020,12,04,12,17,11.50
2020,12,04,12,18,11.60
2020,12,04,12,19,11.70
2020,12,04,12,20,11.70
2020,12,04,12,21,11.80
2020,12,04,12,22,11.80
2020,12,04,12,23,11.80
2020,12,04,12,24,11.80
2020,12,04,12,25,11.90
2020,12,04,12,26,11.90
2020,12,04,12,27,12.00
2020,12,04,12,28,12.00
2020,12,04,12,29,12.00
2020,12,04,12,30,11.90
2020,12,04,12,31,11.90
2020,12,04,12,32,11.80
2020,12,04,12,33,11.80
2020,12,04,12,34,11.80
2020,12,04,12,35,11.70
2020,12,04,12,36,11.70
2020,12,04,12,37,11.70
2020,12,04,12,38,11.70
2020,12,04,12,39,11.70
2020,12,04,12,40,11.70
2020,12,04,12,41,11.60
2020,12,04,12,42,11.60
2020,12,04,12,43,11.50
2020,12,04,12,44,11.40
2020,12,04,12,45,11.40
2020,12,04,12,46,11.40
2020,12,04,12,47,11.30
2020,12,04,12,48,11.30
2020,12,04,12,49,11.30
2020,12,04,12,50,11.40
2020,12,04,12,51,11.40
2020,12,04,12,52,11.40
2020,12,04,12,53,11.40
2020,12,04,12,54,11.40
2020,12,04,12,55,11.50
2020,12,04,12,56,11.50
2020,12,04,12,57,11.60
2020,12,04,12,58,11.70
2020,12,04,12,59,11.80
2020,12,04,13,00,11.80
2020,12,04,13,01,11.80
2020,12,04,13,02,11.80
2020,12,04,13,03,11.90
2020,12,04,13,04,11.90
2020,12,04,13,05,11.90
2020,12,04,13,06,12.00
2020,12,04,13,07,12.00
2020,12,04,13,08,12.00
2020,12,04,13,09,11.90
2020,12,04,13,10,11.90
2020,12,04,13,11,11.90
2020,12,04,13,12,11.90
2020,12,04,13,13,11.90
2020,12,04,13,14,12.00
2020,12,04,13,15,12.00
2020,12,04,13,16,12.00
2020,12,04,13,17,12.00
2020,12,04,13,18,11.90
2020,12,04,13,19,11.90
2020,12,04,13,20,11.90
2020,12,04,13,21,11.90
2020,12,04,13,22,11.90
2020,12,04,13,23,11.90
2020,12,04,13,24,11.80
2020,12,04,13,25,11.70
2020,12,04,13,26,11.70
2020,12,04,13,27,11.70
2020,12,04,13,28,11.70
2020,12,04,13,29,11.70
2020,12,04,13,30,11.70
2020,12,04,13,31,11.70
2020,12,04,13,32,11.70
2020,12,04,13,33,11.70
2020,12,04,13,34,11.70
2020,12,04,13,35,11.70
2020,12,04,13,36,11.80
2020,12,04,13,37,11.80
2020,12,04,13,38,11.80
2020,12,04,13,39,11.80
2020,12,04,13,40,11.80
2020,12,04,13,41,11.80
2020,12,04,13,42,11.80
2020,12,04,13,43,11.80
2020,12,04,13,44,11.80
2020,12,04,13,45,11.80
2020,12,04,13,46,11.80
2020,12,04,13,47,11.80
2020,12,04,13,48,11.80
2020,12,04,13,49,11.80
2020,12,04,13,50,11.70
2020,12,04,13,51,11.70
2020,12,04,13,52,11.60
2020,12,04,13,53,11.60
2020,12,04,13,54,11.50
2020,12,04,13,55,11.50
2020,12,04,13,56,11.40
2020,12,04,13,57,11.40
2020,12,04,13,58,11.30
2020,12,04,13,59,11.30
2020,12,04,14,00,11.30
2020,12,04,14,01,11.20
2020,12,04,14,02,11.20
2020,12,04,14,03,11.20
2020,12,04,14,04,11.20
2020,12,04,14,05,11.20
2020,12,04,14,06,11.20
2020,12,04,14,07,11.20
2020,12,04,14,08,11.20
2020,12,04,14,09,11.20
2020,12,04,14,10,11.20
2020,12,04,14,11,11.20
2020,12,04,14,12,11.20
2020,12,04,14,13,11.10
2020,12,04,14,14,11.10
2020,12,04,14,15,11.10
2020,12,04,14,16,11.10
2020,12,04,14,17,11.10
2020,12,04,14,18,11.10
2020,12,04,14,19,11.10
2020,12,04,14,20,11.10
2020,12,04,14,21,11.10
2020,12,04,14,22,11.10
2020,12,04,14,23,11.10
2020,12,04,14,24,11.10
2020,12,04,14,25,11.00
2020,12,04,14,26,11.00
2020,12,04,14,27,11.00
2020,12,04,14,28,10.90
2020,12,04,14,29,10.90
2020,12,04,14,30,10.90
2020,12,04,14,31,10.80
2020,12,04,14,32,10.80
2020,12,04,14,33,10.80
2020,12,04,14,34,10.80
2020,12,04,14,35,10.70
2020,12,04,14,36,10.70
2020,12,04,14,37,10.70
2020,12,04,14,38,10.60
2020,12,04,14,39,10.60
2020,12,04,14,40,10.60
2020,12,04,14,41,10.50
2020,12,04,14,42,10.50
2020,12,04,14,43,10.50
2020,12,04,14,44,10.40
2020,12,04,14,45,10.40
2020,12,04,14,46,10.40
2020,12,04,14,47,10.40
2020,12,04,14,48,10.30
2020,12,04,14,49,10.30
2020,12,04,14,50,10.30
2020,12,04,14,51,10.20
2020,12,04,14,52,10.20
2020,12,04,14,53,10.20
2020,12,04,14,54,10.20
2020,12,04,14,55,10.20
2020,12,04,14,56,10.10
2020,12,04,14,57,10.10
2020,12,04,14,58,10.10
2020,12,04,14,59,10.10
2020,12,04,15,00,10.10
2020,12,04,15,01,10.00
2020,12,04,15,02,10.00
2020,12,04,15,03,10.00
2020,12,04,15,04,9.90
2020,12,04,15,05,9.90
2020,12,04,15,06,9.90
2020,12,04,15,07,9.90
2020,12,04,15,08,9.90
2020,12,04,15,09,9.80
2020,12,04,15,10,9.80
2020,12,04,15,11,9.80
2020,12,04,15,12,9.80
2020,12,04,15,13,9.80
2020,12,04,15,14,9.80
2020,12,04,15,15,9.80
2020,12,04,15,16,9.80
2020,12,04,15,17,9.80
2020,12,04,15,18,9.80
2020,12,04,15,19,9.70
2020,12,04,15,20,9.70
2020,12,04,15,21,9.70
2020,12,04,15,22,9.70
2020,12,04,15,23,9.70
2020,12,04,15,24,9.70
2020,12,04,15,25,9.70
2020,12,04,15,26,9.70
2020,12,04,15,27,9.70
2020,12,04,15,28,9.70
2020,12,04,15,29,9.70
2020,12,04,15,30,9.70
2020,12,04,15,31,9.70
2020,12,04,15,32,9.60
2020,12,04,15,33,9.60
2020,12,04,15,34,9.60
2020,12,04,15,35,9.60
2020,12,04,15,36,9.60
2020,12,04,15,37,9.50
2020,12,04,15,38,9.50
2020,12,04,15,39,9.40
2020,12,04,15,40,9.40
2020,12,04,15,41,9.30
2020,12,04,15,42,9.30
2020,12,04,15,43,9.30
2020,12,04,15,44,9.20
2020,12,04,15,45,9.20
2020,12,04,15,46,9.20
2020,12,04,15,47,9.10
2020,12,04,15,48,9.10
2020,12,04,15,49,9.10
2020,12,04,15,50,9.00
2020,12,04,15,51,9.00
2020,12,04,15,52,8.90
2020,12,04,15,53,8.90
2020,12,04,15,54,8.90
2020,12,04,15,55,8.80
2020,12,04,15,56,8.80
2020,12,04,15,57,8.80
2020,12,04,15,58,8.70
2020,12,04,15,59,8.70
2020,12,04,16,00,8.70
2020,12,04,16,01,8.60
2020,12,04,16,02,8.60
2020,12,04,16,03,8.60
2020,12,04,16,04,8.50
2020,12,04,16,05,8.50
2020,12,04,16,06,8.40
2020,12,04,16,07,8.30
2020,12,04,16,08,8.30
2020,12,04,16,09,8.20
2020,12,04,16,10,8.10
2020,12,04,16,11,8.00
2020,12,04,16,12,8.00
2020,12,04,16,13,7.90
2020,12,04,16,14,7.80
2020,12,04,16,15,7.80
2020,12,04,16,16,7.70
2020,12,04,16,17,7.60
2020,12,04,16,18,7.50
2020,12,04,16,19,7.40
2020,12,04,16,20,7.40
2020,12,04,16,21,7.30
2020,12,04,16,22,7.20
2020,12,04,16,23,7.20
2020,12,04,16,24,7.20
2020,12,04,16,25,7.10
2020,12,04,16,26,7.10
2020,12,04,16,27,7.00
2020,12,04,16,28,7.00
2020,12,04,16,29,6.90
2020,12,04,16,30,6.90
2020,12,04,16,31,6.80
2020,12,04,16,32,6.80
2020,12,04,16,33,6.70
2020,12,04,16,34,6.70
2020,12,04,16,35,6.70
2020,12,04,16,36,6.60
2020,12,04,16,37,6.60
2020,12,04,16,38,6.50
2020,12,04,16,39,6.40
2020,12,04,16,40,6.40
2020,12,04,16,41,6.40
2020,12,04,16,42,6.30
2020,12,04,16,43,6.30
2020,12,04,16,44,6.20
2020,12,04,16,45,6.20
2020,12,04,16,46,6.10
2020,12,04,16,47,6.00
2020,12,04,16,48,6.00
2020,12,04,16,49,5.90
2020,12,04,16,50,5.80
2020,12,04,16,51,5.80
2020,12,04,16,52,5.80
2020,12,04,16,53,5.70
2020,12,04,16,54,5.70
2020,12,04,16,55,5.70
2020,12,04,16,56,5.60
2020,12,04,16,57,5.60
2020,12,04,16,58,5.60
2020,12,04,16,59,5.50
2020,12,04,17,00,5.50
2020,12,04,17,01,5.40
2020,12,04,17,02,5.40
2020,12,04,17,03,5.40
2020,12,04,17,04,5.30
2020,12,04,17,05,5.30
2020,12,04,17,06,5.30
2020,12,04,17,07,5.20
2020,12,04,17,08,5.20
2020,12,04,17,09,5.20
2020,12,04,17,10,5.10
2020,12,04,17,11,5.10
2020,12,04,17,12,5.10
2020,12,04,17,13,5.10
2020,12,04,17,14,5.00
2020,12,04,17,15,5.00
2020,12,04,17,16,5.00
2020,12,04,17,17,5.00
2020,12,04,17,18,4.90
2020,12,04,17,19,4.90
2020,12,04,17,20,4.90
2020,12,04,17,21,4.90
2020,12,04,17,22,4.90
2020,12,04,17,23,4.90
2020,12,04,17,24,4.90
2020,12,04,17,25,4.90
2020,12,04,17,26,4.90
2020,12,04,17,27,4.80
2020,12,04,17,28,4.80
2020,12,04,17,29,4.80
2020,12,04,17,30,4.80
2020,12,04,17,31,4.80
2020,12,04,17,32,4.80
2020,12,04,17,33,4.80
2020,12,04,17,34,4.80
2020,12,04,17,35,4.80
2020,12,04,17,36,4.80
2020,12,04,17,37,4.80
2020,12,04,17,38,4.80
2020,12,04,17,39,4.80
2020,12,04,17,40,4.80
2020,12,04,17,41,4.80
2020,12,04,17,42,4.80
2020,12,04,17,43,4.80
2020,12,04,17,44,4.80
2020,12,04,17,45,4.80
2020,12,04,17,46,4.90
2020,12,04,17,47,4.90
2020,12,04,17,48,4.90
2020,12,04,17,49,4.90
2020,12,04,17,50,4.90
2020,12,04,17,51,4.90
2020,12,04,17,52,4.90
2020,12,04,17,53,4.90
2020,12,04,17,54,4.90
2020,12,04,17,55,4.90
2020,12,04,17,56,4.90
2020,12,04,17,57,4.90
2020,12,04,17,58,4.90
2020,12,04,17,59,4.90
2020,12,04,18,00,4.90
2020,12,04,18,01,4.90
2020,12,04,18,02,4.90
2020,12,04,18,03,4.90
2020,12,04,18,04,4.80
2020,12,04,18,05,4.80
2020,12,04,18,06,4.80
2020,12,04,18,07,4.80
2020,12,04,18,08,4.80
2020,12,04,18,09,4.80
2020,12,04,18,10,4.70
2020,12,04,18,11,4.70
2020,12,04,18,12,4.70
2020,12,04,18,13,4.70
2020,12,04,18,14,4.70
2020,12,04,18,15,4.60
2020,12,04,18,16,4.60
2020,12,04,18,17,4.60
2020,12,04,18,18,4.50
2020,12,04,18,19,4.50
2020,12,04,18,20,4.50
2020,12,04,18,21,4.40
2020,12,04,18,22,4.40
2020,12,04,18,23,4.40
2020,12,04,18,24,4.30
2020,12,04,18,25,4.30
2020,12,04,18,26,4.30
2020,12,04,18,27,4.20
2020,12,04,18,28,4.20
2020,12,04,18,29,4.20
2020,12,04,18,30,4.20
2020,12,04,18,31,4.10
2020,12,04,18,32,4.10
2020,12,04,18,33,4.10
2020,12,04,18,34,4.10
2020,12,04,18,35,4.10
2020,12,04,18,36,4.10
2020,12,04,18,37,4.00
2020,12,04,18,38,4.00
2020,12,04,18,39,4.00
2020,12,04,18,40,3.90
2020,12,04,18,41,3.90
2020,12,04,18,42,3.90
2020,12,04,18,43,3.90
2020,12,04,18,44,3.90
2020,12,04,18,45,3.80
2020,12,04,18,46,3.80
2020,12,04,18,47,3.80
2020,12,04,18,48,3.80
2020,12,04,18,49,3.70
2020,12,04,18,50,3.70
2020,12,04,18,51,3.70
2020,12,04,18,52,3.70
2020,12,04,18,53,3.70
2020,12,04,18,54,3.60
2020,12,04,18,55,3.60
2020,12,04,18,56,3.60
2020,12,04,18,57,3.50
2020,12,04,18,58,3.50
2020,12,04,18,59,3.50
2020,12,04,19,00,3.40
2020,12,04,19,01,3.40
2020,12,04,19,02,3.40
2020,12,04,19,03,3.40
2020,12,04,19,04,3.30
2020,12,04,19,05,3.30
2020,12,04,19,06,3.30
2020,12,04,19,07,3.20
2020,12,04,19,08,3.20
2020,12,04,19,09,3.20
2020,12,04,19,10,3.20
2020,12,04,19,11,3.20
2020,12,04,19,12,3.10
2020,12,04,19,13,3.10
2020,12,04,19,14,3.10
2020,12,04,19,15,3.10
2020,12,04,19,16,3.00
2020,12,04,19,17,3.00
2020,12,04,19,18,3.00
2020,12,04,19,19,3.00
2020,12,04,19,20,3.00
2020,12,04,19,21,3.00
2020,12,04,19,22,3.00
2020,12,04,19,23,3.00
2020,12,04,19,24,2.90
2020,12,04,19,25,2.90
2020,12,04,19,26,2.90
2020,12,04,19,27,2.90
2020,12,04,19,28,2.90
2020,12,04,19,29,2.80
2020,12,04,19,30,2.80
2020,12,04,19,31,2.80
2020,12,04,19,32,2.80
2020,12,04,19,33,2.80
2020,12,04,19,34,2.80
2020,12,04,19,35,2.80
2020,12,04,19,36,2.70
2020,12,04,19,37,2.70
2020,12,04,19,38,2.70
2020,12,04,19,39,2.70
2020,12,04,19,40,2.70
2020,12,04,19,41,2.70
2020,12,04,19,42,2.60
2020,12,04,19,43,2.60
2020,12,04,19,44,2.60
2020,12,04,19,45,2.60
2020,12,04,19,46,2.60
2020,12,04,19,47,2.60
2020,12,04,19,48,2.50
2020,12,04,19,49,2.50
2020,12,04,19,50,2.50
2020,12,04,19,51,2.50
2020,12,04,19,52,2.40
2020,12,04,19,53,2.40
2020,12,04,19,54,2.40
2020,12,04,19,55,2.40
2020,12,04,19,56,2.40
2020,12,04,19,57,2.30
2020,12,04,19,58,2.30
2020,12,04,19,59,2.30
2020,12,04,20,00,2.30
2020,12,04,20,01,2.30
2020,12,04,20,02,2.30
2020,12,04,20,03,2.30
2020,12,04,20,04,2.30
2020,12,04,20,05,2.20
2020,12,04,20,06,2.20
2020,12,04,20,07,2.20
2020,12,04,20,08,2.20
2020,12,04,20,09,2.20
2020,12,04,20,10,2.20
2020,12,04,20,11,2.20
2020,12,04,20,12,2.20
2020,12,04,20,13,2.20
2020,12,04,20,14,2.20
2020,12,04,20,15,2.10
2020,12,04,20,16,2.10
2020,12,04,20,17,2.10
2020,12,04,20,18,2.10
2020,12,04,20,19,2.10
2020,12,04,20,20,2.00
2020,12,04,20,21,2.00
2020,12,04,20,22,2.00
2020,12,04,20,23,2.00
2020,12,04,20,24,1.90
2020,12,04,20,25,1.90
2020,12,04,20,26,1.90
2020,12,04,20,27,1.90
2020,12,04,20,28,1.90
2020,12,04,20,29,1.90
2020,12,04,20,30,1.90
2020,12,04,20,31,1.90
2020,12,04,20,32,1.90
2020,12,04,20,33,1.80
2020,12,04,20,34,1.80
2020,12,04,20,35,1.80
2020,12,04,20,36,1.80
2020,12,04,20,37,1.80
2020,12,04,20,38,1.80
2020,12,04,20,39,1.70
2020,12,04,20,40,1.70
2020,12,04,20,41,1.70
2020,12,04,20,42,1.70
2020,12,04,20,43,1.70
2020,12,04,20,44,1.60
2020,12,04,20,45,1.60
2020,12,04,20,46,1.60
2020,12,04,20,47,1.60
2020,12,04,20,48,1.60
2020,12,04,20,49,1.60
2020,12,04,20,50,1.60
2020,12,04,20,51,1.50
2020,12,04,20,52,1.50
2020,12,04,20,53,1.50
2020,12,04,20,54,1.40
2020,12,04,20,55,1.40
2020,12,04,20,56,1.40
2020,12,04,20,57,1.40
2020,12,04,20,58,1.30
2020,12,04,20,59,1.30
2020,12,04,21,00,1.30
2020,12,04,21,01,1.30
2020,12,04,21,02,1.30
2020,12,04,21,03,1.30
2020,12,04,21,04,1.30
2020,12,04,21,05,1.30
2020,12,04,21,06,1.30
2020,12,04,21,07,1.30
2020,12,04,21,08,1.30
2020,12,04,21,09,1.30
2020,12,04,21,10,1.30
2020,12,04,21,11,1.30
2020,12,04,21,12,1.30
2020,12,04,21,13,1.30
2020,12,04,21,14,1.30
2020,12,04,21,15,1.30
2020,12,04,21,16,1.30
2020,12,04,21,17,1.30
2020,12,04,21,18,1.30
2020,12,04,21,19,1.30
2020,12,04,21,20,1.30
2020,12,04,21,21,1.30
2020,12,04,21,22,1.30
2020,12,04,21,23,1.20
2020,12,04,21,24,1.20
2020,12,04,21,25,1.20
2020,12,04,21,26,1.20
2020,12,04,21,27,1.20
2020,12,04,21,28,1.20
2020,12,04,21,29,1.10
2020,12,04,21,30,1.10
2020,12,04,21,31,1.10
2020,12,04,21,32,1.10
2020,12,04,21,33,1.10
2020,12,04,21,34,1.10
2020,12,04,21,35,1.10
2020,12,04,21,36,1.10
2020,12,04,21,37,1.10
2020,12,04,21,38,1.00
2020,12,04,21,39,1.00
2020,12,04,21,40,1.00
2020,12,04,21,41,0.90
2020,12,04,21,42,0.90
2020,12,04,21,43,0.90
2020,12,04,21,44,0.90
2020,12,04,21,45,0.90
2020,12,04,21,46,0.80
2020,12,04,21,47,0.80
2020,12,04,21,48,0.80
2020,12,04,21,49,0.80
2020,12,04,21,50,0.80
2020,12,04,21,51,0.80
2020,12,04,21,52,0.70
2020,12,04,21,53,0.70
2020,12,04,21,54,0.70
2020,12,04,21,55,0.70
2020,12,04,21,56,0.70
2020,12,04,21,57,0.70
2020,12,04,21,58,0.70
2020,12,04,21,59,0.70
2020,12,04,22,00,0.70
2020,12,04,22,01,0.60
2020,12,04,22,02,0.60
2020,12,04,22,03,0.60
2020,12,04,22,04,0.60
2020,12,04,22,05,0.60
2020,12,04,22,06,0.60
2020,12,04,22,07,0.60
2020,12,04,22,08,0.60
2020,12,04,22,09,0.60
2020,12,04,22,10,0.60